Location: St. Louis
(38.6270°N, 90.1994°W)
Time: 21:05:58
(UTC-06:00)

Courier 1B Rocket - Pass Details

Date: 01 December 2021
Orbit: 920 x 1202 km, 28.2° (Epoch: 21 January)

Event Time Altitude Azimuth Distance (km) Brightness Sun altitude
Rises 22:39:44 0° 222° (SW) 3,621 - -67.5°
Reaches altitude 10° 22:43:07 10° 206° (SSW) 2,642 - -68.0°
Maximum altitude 22:47:31 20° 162° (SSE) 2,004 - -68.6°
Drops below altitude 10° 22:51:51 10° 117° (ESE) 2,603 - -69.2°
Sets 22:55:09 0° 101° (E) 3,550 - -69.6°
